Year,Month,Day,Hour,Minute,Value (Times are PST for temperature in C)
2009,02,03,00,00,3.30
2009,02,03,00,01,3.30
2009,02,03,00,02,3.30
2009,02,03,00,03,3.30
2009,02,03,00,04,3.30
2009,02,03,00,05,3.30
2009,02,03,00,06,3.30
2009,02,03,00,07,3.30
2009,02,03,00,08,3.30
2009,02,03,00,09,3.30
2009,02,03,00,10,3.30
2009,02,03,00,11,3.30
2009,02,03,00,12,3.30
2009,02,03,00,13,3.30
2009,02,03,00,14,3.30
2009,02,03,00,15,3.30
2009,02,03,00,16,3.30
2009,02,03,00,17,3.30
2009,02,03,00,18,3.30
2009,02,03,00,19,3.30
2009,02,03,00,20,3.30
2009,02,03,00,21,3.30
2009,02,03,00,22,3.30
2009,02,03,00,23,3.30
2009,02,03,00,24,3.30
2009,02,03,00,25,3.30
2009,02,03,00,26,3.30
2009,02,03,00,27,3.30
2009,02,03,00,28,3.30
2009,02,03,00,29,3.30
2009,02,03,00,30,3.30
2009,02,03,00,31,3.30
2009,02,03,00,32,3.30
2009,02,03,00,33,3.30
2009,02,03,00,34,3.30
2009,02,03,00,35,3.30
2009,02,03,00,36,3.30
2009,02,03,00,37,3.30
2009,02,03,00,38,3.30
2009,02,03,00,39,3.30
2009,02,03,00,40,3.30
2009,02,03,00,41,3.30
2009,02,03,00,42,3.30
2009,02,03,00,43,3.30
2009,02,03,00,44,3.30
2009,02,03,00,45,3.30
2009,02,03,00,46,3.30
2009,02,03,00,47,3.30
2009,02,03,00,48,3.30
2009,02,03,00,49,3.30
2009,02,03,00,50,3.30
2009,02,03,00,51,3.30
2009,02,03,00,52,3.30
2009,02,03,00,53,3.30
2009,02,03,00,54,3.30
2009,02,03,00,55,3.30
2009,02,03,00,56,3.30
2009,02,03,00,57,3.30
2009,02,03,00,58,3.30
2009,02,03,00,59,3.20
2009,02,03,01,00,3.20
2009,02,03,01,01,3.10
2009,02,03,01,02,3.10
2009,02,03,01,03,3.10
2009,02,03,01,04,3.10
2009,02,03,01,05,3.10
2009,02,03,01,06,3.10
2009,02,03,01,07,3.10
2009,02,03,01,08,3.10
2009,02,03,01,09,3.00
2009,02,03,01,10,2.90
2009,02,03,01,11,2.90
2009,02,03,01,12,2.90
2009,02,03,01,13,2.90
2009,02,03,01,14,2.90
2009,02,03,01,15,2.90
2009,02,03,01,16,2.90
2009,02,03,01,17,2.90
2009,02,03,01,18,3.10
2009,02,03,01,19,3.10
2009,02,03,01,20,3.10
2009,02,03,01,21,3.10
2009,02,03,01,22,3.10
2009,02,03,01,23,3.10
2009,02,03,01,24,3.10
2009,02,03,01,25,3.10
2009,02,03,01,26,3.10
2009,02,03,01,27,3.10
2009,02,03,01,28,3.10
2009,02,03,01,29,3.10
2009,02,03,01,30,3.10
2009,02,03,01,31,3.10
2009,02,03,01,32,3.00
2009,02,03,01,33,3.00
2009,02,03,01,34,3.00
2009,02,03,01,35,2.90
2009,02,03,01,36,2.90
2009,02,03,01,37,2.90
2009,02,03,01,38,2.90
2009,02,03,01,39,2.90
2009,02,03,01,40,2.90
2009,02,03,01,41,2.90
2009,02,03,01,42,2.90
2009,02,03,01,43,2.90
2009,02,03,01,44,2.90
2009,02,03,01,45,2.90
2009,02,03,01,46,2.90
2009,02,03,01,47,2.90
2009,02,03,01,48,2.90
2009,02,03,01,49,2.90
2009,02,03,01,50,2.90
2009,02,03,01,51,2.90
2009,02,03,01,52,2.90
2009,02,03,01,53,2.90
2009,02,03,01,54,2.90
2009,02,03,01,55,2.90
2009,02,03,01,56,2.90
2009,02,03,01,57,2.90
2009,02,03,01,58,2.90
2009,02,03,01,59,2.90
2009,02,03,02,00,2.80
2009,02,03,02,01,2.80
2009,02,03,02,02,2.80
2009,02,03,02,03,2.80
2009,02,03,02,04,2.80
2009,02,03,02,05,2.80
2009,02,03,02,06,2.70
2009,02,03,02,07,2.70
2009,02,03,02,08,2.70
2009,02,03,02,09,2.70
2009,02,03,02,10,2.70
2009,02,03,02,11,2.70
2009,02,03,02,12,2.70
2009,02,03,02,13,2.70
2009,02,03,02,14,2.70
2009,02,03,02,15,2.70
2009,02,03,02,16,2.70
2009,02,03,02,17,2.70
2009,02,03,02,18,2.70
2009,02,03,02,19,2.70
2009,02,03,02,20,2.70
2009,02,03,02,21,2.70
2009,02,03,02,22,2.70
2009,02,03,02,23,2.70
2009,02,03,02,24,2.70
2009,02,03,02,25,2.60
2009,02,03,02,26,2.60
2009,02,03,02,27,2.60
2009,02,03,02,28,2.60
2009,02,03,02,29,2.60
2009,02,03,02,30,2.60
2009,02,03,02,31,2.60
2009,02,03,02,32,2.50
2009,02,03,02,33,2.50
2009,02,03,02,34,2.50
2009,02,03,02,35,2.50
2009,02,03,02,36,2.40
2009,02,03,02,37,2.40
2009,02,03,02,38,2.40
2009,02,03,02,39,2.40
2009,02,03,02,40,2.40
2009,02,03,02,41,2.40
2009,02,03,02,42,2.40
2009,02,03,02,43,2.40
2009,02,03,02,44,2.40
2009,02,03,02,45,2.40
2009,02,03,02,46,2.40
2009,02,03,02,47,2.40
2009,02,03,02,48,2.40
2009,02,03,02,49,2.40
2009,02,03,02,50,2.30
2009,02,03,02,51,2.30
2009,02,03,02,52,2.30
2009,02,03,02,53,2.30
2009,02,03,02,54,2.30
2009,02,03,02,55,2.30
2009,02,03,02,56,2.30
2009,02,03,02,57,2.30
2009,02,03,02,58,2.20
2009,02,03,02,59,2.20
2009,02,03,03,00,2.20
2009,02,03,03,01,2.20
2009,02,03,03,02,2.20
2009,02,03,03,03,2.20
2009,02,03,03,04,2.20
2009,02,03,03,05,2.20
2009,02,03,03,06,2.20
2009,02,03,03,07,2.20
2009,02,03,03,08,2.20
2009,02,03,03,09,2.20
2009,02,03,03,10,2.20
2009,02,03,03,11,2.20
2009,02,03,03,12,2.20
2009,02,03,03,13,2.20
2009,02,03,03,14,2.20
2009,02,03,03,15,2.20
2009,02,03,03,16,2.20
2009,02,03,03,17,2.20
2009,02,03,03,18,2.20
2009,02,03,03,19,2.20
2009,02,03,03,20,2.20
2009,02,03,03,21,2.20
2009,02,03,03,22,2.20
2009,02,03,03,23,2.20
2009,02,03,03,24,2.20
2009,02,03,03,25,2.20
2009,02,03,03,26,2.20
2009,02,03,03,27,2.20
2009,02,03,03,28,2.20
2009,02,03,03,29,2.20
2009,02,03,03,30,2.20
2009,02,03,03,31,2.20
2009,02,03,03,32,2.20
2009,02,03,03,33,2.20
2009,02,03,03,34,2.20
2009,02,03,03,35,2.20
2009,02,03,03,36,2.20
2009,02,03,03,37,2.10
2009,02,03,03,38,2.10
2009,02,03,03,39,2.10
2009,02,03,03,40,2.10
2009,02,03,03,41,2.00
2009,02,03,03,42,2.00
2009,02,03,03,43,2.00
2009,02,03,03,44,2.00
2009,02,03,03,45,2.00
2009,02,03,03,46,2.00
2009,02,03,03,47,2.10
2009,02,03,03,48,2.10
2009,02,03,03,49,2.10
2009,02,03,03,50,2.10
2009,02,03,03,51,2.10
2009,02,03,03,52,2.10
2009,02,03,03,53,2.10
2009,02,03,03,54,2.10
2009,02,03,03,55,2.10
2009,02,03,03,56,2.10
2009,02,03,03,57,2.10
2009,02,03,03,58,2.10
2009,02,03,03,59,2.10
2009,02,03,04,00,2.10
2009,02,03,04,01,2.10
2009,02,03,04,02,2.10
2009,02,03,04,03,2.10
2009,02,03,04,04,2.10
2009,02,03,04,05,2.10
2009,02,03,04,06,2.10
2009,02,03,04,07,2.10
2009,02,03,04,08,2.20
2009,02,03,04,09,2.20
2009,02,03,04,10,2.20
2009,02,03,04,11,2.20
2009,02,03,04,12,2.20
2009,02,03,04,13,2.20
2009,02,03,04,14,2.20
2009,02,03,04,15,2.20
2009,02,03,04,16,2.20
2009,02,03,04,17,2.10
2009,02,03,04,18,2.10
2009,02,03,04,19,2.10
2009,02,03,04,20,2.10
2009,02,03,04,21,2.10
2009,02,03,04,22,2.10
2009,02,03,04,23,2.10
2009,02,03,04,24,2.10
2009,02,03,04,25,2.10
2009,02,03,04,26,2.00
2009,02,03,04,27,2.10
2009,02,03,04,28,2.10
2009,02,03,04,29,2.10
2009,02,03,04,30,2.10
2009,02,03,04,31,2.10
2009,02,03,04,32,2.10
2009,02,03,04,33,2.10
2009,02,03,04,34,2.10
2009,02,03,04,35,2.10
2009,02,03,04,36,2.10
2009,02,03,04,37,2.00
2009,02,03,04,38,2.00
2009,02,03,04,39,2.10
2009,02,03,04,40,2.10
2009,02,03,04,41,2.10
2009,02,03,04,42,2.10
2009,02,03,04,43,2.10
2009,02,03,04,44,2.10
2009,02,03,04,45,2.10
2009,02,03,04,46,2.10
2009,02,03,04,47,2.10
2009,02,03,04,48,2.10
2009,02,03,04,49,2.10
2009,02,03,04,50,2.00
2009,02,03,04,51,2.00
2009,02,03,04,52,2.00
2009,02,03,04,53,2.00
2009,02,03,04,54,2.00
2009,02,03,04,55,2.00
2009,02,03,04,56,2.00
2009,02,03,04,57,2.00
2009,02,03,04,58,2.00
2009,02,03,04,59,2.00
2009,02,03,05,00,2.00
2009,02,03,05,01,2.00
2009,02,03,05,02,2.00
2009,02,03,05,03,2.00
2009,02,03,05,04,2.00
2009,02,03,05,05,2.00
2009,02,03,05,06,2.00
2009,02,03,05,07,2.10
2009,02,03,05,08,2.10
2009,02,03,05,09,2.10
2009,02,03,05,10,2.10
2009,02,03,05,11,2.10
2009,02,03,05,12,2.10
2009,02,03,05,13,2.10
2009,02,03,05,14,2.10
2009,02,03,05,15,2.10
2009,02,03,05,16,2.00
2009,02,03,05,17,2.00
2009,02,03,05,18,2.00
2009,02,03,05,19,2.00
2009,02,03,05,20,2.00
2009,02,03,05,21,2.00
2009,02,03,05,22,1.90
2009,02,03,05,23,1.90
2009,02,03,05,24,1.90
2009,02,03,05,25,1.90
2009,02,03,05,26,1.90
2009,02,03,05,27,1.80
2009,02,03,05,28,1.80
2009,02,03,05,29,1.80
2009,02,03,05,30,1.80
2009,02,03,05,31,1.80
2009,02,03,05,32,1.80
2009,02,03,05,33,1.80
2009,02,03,05,34,1.80
2009,02,03,05,35,1.80
2009,02,03,05,36,1.80
2009,02,03,05,37,1.80
2009,02,03,05,38,1.80
2009,02,03,05,39,1.80
2009,02,03,05,40,1.80
2009,02,03,05,41,1.80
2009,02,03,05,42,1.80
2009,02,03,05,43,1.80
2009,02,03,05,44,1.80
2009,02,03,05,45,1.80
2009,02,03,05,46,1.90
2009,02,03,05,47,1.90
2009,02,03,05,48,1.90
2009,02,03,05,49,1.90
2009,02,03,05,50,1.90
2009,02,03,05,51,1.90
2009,02,03,05,52,1.90
2009,02,03,05,53,1.90
2009,02,03,05,54,1.80
2009,02,03,05,55,1.80
2009,02,03,05,56,1.80
2009,02,03,05,57,1.80
2009,02,03,05,58,1.80
2009,02,03,05,59,1.80
2009,02,03,06,00,1.80
2009,02,03,06,01,1.80
2009,02,03,06,02,1.80
2009,02,03,06,03,1.80
2009,02,03,06,04,1.80
2009,02,03,06,05,1.80
2009,02,03,06,06,1.80
2009,02,03,06,07,1.80
2009,02,03,06,08,1.80
2009,02,03,06,09,1.80
2009,02,03,06,10,1.80
2009,02,03,06,11,1.80
2009,02,03,06,12,1.80
2009,02,03,06,13,1.80
2009,02,03,06,14,1.80
2009,02,03,06,15,1.80
2009,02,03,06,16,1.80
2009,02,03,06,17,1.80
2009,02,03,06,18,1.80
2009,02,03,06,19,1.80
2009,02,03,06,20,1.80
2009,02,03,06,21,1.80
2009,02,03,06,22,1.80
2009,02,03,06,23,1.80
2009,02,03,06,24,1.80
2009,02,03,06,25,1.70
2009,02,03,06,26,1.70
2009,02,03,06,27,1.70
2009,02,03,06,28,1.70
2009,02,03,06,29,1.70
2009,02,03,06,30,1.70
2009,02,03,06,31,1.70
2009,02,03,06,32,1.70
2009,02,03,06,33,1.70
2009,02,03,06,34,1.70
2009,02,03,06,35,1.70
2009,02,03,06,36,1.70
2009,02,03,06,37,1.70
2009,02,03,06,38,1.70
2009,02,03,06,39,1.70
2009,02,03,06,40,1.70
2009,02,03,06,41,1.60
2009,02,03,06,42,1.60
2009,02,03,06,43,1.60
2009,02,03,06,44,1.60
2009,02,03,06,45,1.60
2009,02,03,06,46,1.60
2009,02,03,06,47,1.60
2009,02,03,06,48,1.60
2009,02,03,06,49,1.60
2009,02,03,06,50,1.60
2009,02,03,06,51,1.70
2009,02,03,06,52,1.70
2009,02,03,06,53,1.80
2009,02,03,06,54,1.80
2009,02,03,06,55,1.80
2009,02,03,06,56,1.80
2009,02,03,06,57,1.80
2009,02,03,06,58,1.80
2009,02,03,06,59,1.80
2009,02,03,07,00,1.80
2009,02,03,07,01,1.80
2009,02,03,07,02,1.80
2009,02,03,07,03,1.80
2009,02,03,07,04,1.80
2009,02,03,07,05,1.90
2009,02,03,07,06,1.90
2009,02,03,07,07,1.90
2009,02,03,07,08,1.90
2009,02,03,07,09,1.90
2009,02,03,07,10,1.90
2009,02,03,07,11,1.90
2009,02,03,07,12,1.90
2009,02,03,07,13,1.90
2009,02,03,07,14,1.80
2009,02,03,07,15,1.80
2009,02,03,07,16,1.80
2009,02,03,07,17,1.80
2009,02,03,07,18,1.80
2009,02,03,07,19,1.80
2009,02,03,07,20,1.90
2009,02,03,07,21,1.90
2009,02,03,07,22,1.90
2009,02,03,07,23,1.90
2009,02,03,07,24,1.90
2009,02,03,07,25,1.90
2009,02,03,07,26,1.90
2009,02,03,07,27,1.90
2009,02,03,07,28,1.90
2009,02,03,07,29,1.90
2009,02,03,07,30,1.90
2009,02,03,07,31,1.90
2009,02,03,07,32,1.90
2009,02,03,07,33,1.90
2009,02,03,07,34,1.80
2009,02,03,07,35,1.80
2009,02,03,07,36,1.80
2009,02,03,07,37,1.80
2009,02,03,07,38,1.80
2009,02,03,07,39,1.80
2009,02,03,07,40,1.80
2009,02,03,07,41,1.80
2009,02,03,07,42,1.80
2009,02,03,07,43,1.80
2009,02,03,07,44,1.80
2009,02,03,07,45,1.80
2009,02,03,07,46,1.90
2009,02,03,07,47,1.90
2009,02,03,07,48,1.90
2009,02,03,07,49,1.90
2009,02,03,07,50,1.90
2009,02,03,07,51,1.90
2009,02,03,07,52,1.90
2009,02,03,07,53,1.90
2009,02,03,07,54,1.90
2009,02,03,07,55,1.90
2009,02,03,07,56,1.90
2009,02,03,07,57,1.90
2009,02,03,07,58,1.90
2009,02,03,07,59,1.90
2009,02,03,08,00,1.90
2009,02,03,08,01,2.00
2009,02,03,08,02,2.00
2009,02,03,08,03,2.00
2009,02,03,08,04,2.00
2009,02,03,08,05,2.00
2009,02,03,08,06,2.10
2009,02,03,08,07,2.10
2009,02,03,08,08,2.00
2009,02,03,08,09,2.00
2009,02,03,08,10,2.10
2009,02,03,08,11,2.10
2009,02,03,08,12,2.10
2009,02,03,08,13,2.10
2009,02,03,08,14,2.10
2009,02,03,08,15,2.10
2009,02,03,08,16,2.10
2009,02,03,08,17,2.20
2009,02,03,08,18,2.20
2009,02,03,08,19,2.20
2009,02,03,08,20,2.20
2009,02,03,08,21,2.20
2009,02,03,08,22,2.20
2009,02,03,08,23,2.20
2009,02,03,08,24,2.20
2009,02,03,08,25,2.20
2009,02,03,08,26,2.20
2009,02,03,08,27,2.20
2009,02,03,08,28,2.20
2009,02,03,08,29,2.20
2009,02,03,08,30,2.20
2009,02,03,08,31,2.20
2009,02,03,08,32,2.20
2009,02,03,08,33,2.20
2009,02,03,08,34,2.20
2009,02,03,08,35,2.20
2009,02,03,08,36,2.20
2009,02,03,08,37,2.20
2009,02,03,08,38,2.20
2009,02,03,08,39,2.20
2009,02,03,08,40,2.20
2009,02,03,08,41,2.20
2009,02,03,08,42,2.20
2009,02,03,08,43,2.20
2009,02,03,08,44,2.20
2009,02,03,08,45,2.20
2009,02,03,08,46,2.20
2009,02,03,08,47,2.20
2009,02,03,08,48,2.20
2009,02,03,08,49,2.20
2009,02,03,08,50,2.20
2009,02,03,08,51,2.20
2009,02,03,08,52,2.30
2009,02,03,08,53,2.30
2009,02,03,08,54,2.30
2009,02,03,08,55,2.30
2009,02,03,08,56,2.30
2009,02,03,08,57,2.30
2009,02,03,08,58,2.30
2009,02,03,08,59,2.30
2009,02,03,09,00,2.30
2009,02,03,09,01,2.30
2009,02,03,09,02,2.40
2009,02,03,09,03,2.40
2009,02,03,09,04,2.40
2009,02,03,09,05,2.40
2009,02,03,09,06,2.50
2009,02,03,09,07,2.50
2009,02,03,09,08,2.50
2009,02,03,09,09,2.50
2009,02,03,09,10,2.50
2009,02,03,09,11,2.50
2009,02,03,09,12,2.50
2009,02,03,09,13,2.60
2009,02,03,09,14,2.60
2009,02,03,09,15,2.60
2009,02,03,09,16,2.60
2009,02,03,09,17,2.60
2009,02,03,09,18,2.60
2009,02,03,09,19,2.60
2009,02,03,09,20,2.70
2009,02,03,09,21,2.70
2009,02,03,09,22,2.70
2009,02,03,09,23,2.70
2009,02,03,09,24,2.70
2009,02,03,09,25,2.80
2009,02,03,09,26,2.80
2009,02,03,09,27,2.80
2009,02,03,09,28,2.80
2009,02,03,09,29,2.90
2009,02,03,09,30,2.90
2009,02,03,09,31,2.90
2009,02,03,09,32,2.90
2009,02,03,09,33,2.90
2009,02,03,09,34,2.90
2009,02,03,09,35,2.90
2009,02,03,09,36,3.00
2009,02,03,09,37,3.10
2009,02,03,09,38,3.10
2009,02,03,09,39,3.10
2009,02,03,09,40,3.10
2009,02,03,09,41,3.10
2009,02,03,09,42,3.20
2009,02,03,09,43,3.20
2009,02,03,09,44,3.20
2009,02,03,09,45,3.20
2009,02,03,09,46,3.20
2009,02,03,09,47,3.30
2009,02,03,09,48,3.30
2009,02,03,09,49,3.30
2009,02,03,09,50,3.30
2009,02,03,09,51,3.30
2009,02,03,09,52,3.30
2009,02,03,09,53,3.30
2009,02,03,09,54,3.40
2009,02,03,09,55,3.40
2009,02,03,09,56,3.50
2009,02,03,09,57,3.50
2009,02,03,09,58,3.50
2009,02,03,09,59,3.50
2009,02,03,10,00,3.50
2009,02,03,10,01,3.60
2009,02,03,10,02,3.60
2009,02,03,10,03,3.60
2009,02,03,10,04,3.60
2009,02,03,10,05,3.60
2009,02,03,10,06,3.60
2009,02,03,10,07,3.70
2009,02,03,10,08,3.70
2009,02,03,10,09,3.80
2009,02,03,10,10,3.80
2009,02,03,10,11,3.80
2009,02,03,10,12,3.80
2009,02,03,10,13,3.80
2009,02,03,10,14,3.80
2009,02,03,10,15,3.90
2009,02,03,10,16,3.90
2009,02,03,10,17,4.00
2009,02,03,10,18,4.00
2009,02,03,10,19,4.00
2009,02,03,10,20,4.10
2009,02,03,10,21,4.10
2009,02,03,10,22,4.20
2009,02,03,10,23,4.20
2009,02,03,10,24,4.20
2009,02,03,10,25,4.30
2009,02,03,10,26,4.30
2009,02,03,10,27,4.30
2009,02,03,10,28,4.40
2009,02,03,10,29,4.40
2009,02,03,10,30,4.50
2009,02,03,10,31,4.50
2009,02,03,10,32,4.50
2009,02,03,10,33,4.60
2009,02,03,10,34,4.60
2009,02,03,10,35,4.60
2009,02,03,10,36,4.60
2009,02,03,10,37,4.60
2009,02,03,10,38,4.70
2009,02,03,10,39,4.70
2009,02,03,10,40,4.80
2009,02,03,10,41,4.80
2009,02,03,10,42,4.90
2009,02,03,10,43,4.90
2009,02,03,10,44,4.90
2009,02,03,10,45,5.10
2009,02,03,10,46,5.10
2009,02,03,10,47,5.10
2009,02,03,10,48,5.20
2009,02,03,10,49,5.30
2009,02,03,10,50,5.30
2009,02,03,10,51,5.30
2009,02,03,10,52,5.40
2009,02,03,10,53,5.50
2009,02,03,10,54,5.50
2009,02,03,10,55,5.50
2009,02,03,10,56,5.60
2009,02,03,10,57,5.60
2009,02,03,10,58,5.70
2009,02,03,10,59,5.70
2009,02,03,11,00,5.70
2009,02,03,11,01,5.70
2009,02,03,11,02,5.70
2009,02,03,11,03,5.70
2009,02,03,11,04,5.70
2009,02,03,11,05,5.70
2009,02,03,11,06,5.70
2009,02,03,11,07,5.70
2009,02,03,11,08,5.80
2009,02,03,11,09,5.80
2009,02,03,11,10,5.80
2009,02,03,11,11,5.90
2009,02,03,11,12,5.90
2009,02,03,11,13,6.00
2009,02,03,11,14,6.00
2009,02,03,11,15,6.00
2009,02,03,11,16,6.10
2009,02,03,11,17,6.10
2009,02,03,11,18,6.20
2009,02,03,11,19,6.20
2009,02,03,11,20,6.20
2009,02,03,11,21,6.20
2009,02,03,11,22,6.30
2009,02,03,11,23,6.40
2009,02,03,11,24,6.40
2009,02,03,11,25,6.40
2009,02,03,11,26,6.40
2009,02,03,11,27,6.50
2009,02,03,11,28,6.60
2009,02,03,11,29,6.60
2009,02,03,11,30,6.60
2009,02,03,11,31,6.60
2009,02,03,11,32,6.60
2009,02,03,11,33,6.60
2009,02,03,11,34,6.60
2009,02,03,11,35,6.60
2009,02,03,11,36,6.60
2009,02,03,11,37,6.60
2009,02,03,11,38,6.70
2009,02,03,11,39,6.70
2009,02,03,11,40,6.70
2009,02,03,11,41,6.80
2009,02,03,11,42,6.80
2009,02,03,11,43,6.90
2009,02,03,11,44,6.90
2009,02,03,11,45,7.00
2009,02,03,11,46,7.00
2009,02,03,11,47,7.10
2009,02,03,11,48,7.10
2009,02,03,11,49,7.20
2009,02,03,11,50,7.30
2009,02,03,11,51,7.30
2009,02,03,11,52,7.30
2009,02,03,11,53,7.30
2009,02,03,11,54,7.30
2009,02,03,11,55,7.40
2009,02,03,11,56,7.40
2009,02,03,11,57,7.50
2009,02,03,11,58,7.50
2009,02,03,11,59,7.50
2009,02,03,12,00,7.60
2009,02,03,12,01,7.60
2009,02,03,12,02,7.70
2009,02,03,12,03,7.70
2009,02,03,12,04,7.70
2009,02,03,12,05,7.70
2009,02,03,12,06,7.70
2009,02,03,12,07,7.70
2009,02,03,12,08,7.70
2009,02,03,12,09,7.70
2009,02,03,12,10,7.70
2009,02,03,12,11,7.60
2009,02,03,12,12,7.60
2009,02,03,12,13,7.60
2009,02,03,12,14,7.60
2009,02,03,12,15,7.60
2009,02,03,12,16,7.70
2009,02,03,12,17,7.70
2009,02,03,12,18,7.70
2009,02,03,12,19,7.80
2009,02,03,12,20,7.80
2009,02,03,12,21,7.80
2009,02,03,12,22,7.90
2009,02,03,12,23,8.00
2009,02,03,12,24,8.00
2009,02,03,12,25,8.10
2009,02,03,12,26,8.10
2009,02,03,12,27,8.20
2009,02,03,12,28,8.20
2009,02,03,12,29,8.20
2009,02,03,12,30,8.30
2009,02,03,12,31,8.30
2009,02,03,12,32,8.40
2009,02,03,12,33,8.40
2009,02,03,12,34,8.50
2009,02,03,12,35,8.50
2009,02,03,12,36,8.50
2009,02,03,12,37,8.60
2009,02,03,12,38,8.60
2009,02,03,12,39,8.60
2009,02,03,12,40,8.60
2009,02,03,12,41,8.50
2009,02,03,12,42,8.50
2009,02,03,12,43,8.60
2009,02,03,12,44,8.60
2009,02,03,12,45,8.60
2009,02,03,12,46,8.70
2009,02,03,12,47,8.70
2009,02,03,12,48,8.70
2009,02,03,12,49,8.70
2009,02,03,12,50,8.70
2009,02,03,12,51,8.70
2009,02,03,12,52,8.70
2009,02,03,12,53,8.70
2009,02,03,12,54,8.70
2009,02,03,12,55,8.70
2009,02,03,12,56,8.70
2009,02,03,12,57,8.80
2009,02,03,12,58,8.80
2009,02,03,12,59,8.80
2009,02,03,13,00,8.90
2009,02,03,13,01,8.90
2009,02,03,13,02,8.90
2009,02,03,13,03,9.00
2009,02,03,13,04,9.00
2009,02,03,13,05,9.00
2009,02,03,13,06,9.00
2009,02,03,13,07,9.10
2009,02,03,13,08,9.10
2009,02,03,13,09,9.10
2009,02,03,13,10,9.10
2009,02,03,13,11,9.10
2009,02,03,13,12,9.10
2009,02,03,13,13,9.10
2009,02,03,13,14,9.10
2009,02,03,13,15,9.10
2009,02,03,13,16,9.10
2009,02,03,13,17,9.10
2009,02,03,13,18,9.10
2009,02,03,13,19,9.10
2009,02,03,13,20,9.20
2009,02,03,13,21,9.20
2009,02,03,13,22,9.20
2009,02,03,13,23,9.20
2009,02,03,13,24,9.20
2009,02,03,13,25,9.20
2009,02,03,13,26,9.20
2009,02,03,13,27,9.30
2009,02,03,13,28,9.30
2009,02,03,13,29,9.30
2009,02,03,13,30,9.30
2009,02,03,13,31,9.30
2009,02,03,13,32,9.40
2009,02,03,13,33,9.40
2009,02,03,13,34,9.40
2009,02,03,13,35,9.40
2009,02,03,13,36,9.40
2009,02,03,13,37,9.40
2009,02,03,13,38,9.40
2009,02,03,13,39,9.40
2009,02,03,13,40,9.40
2009,02,03,13,41,9.40
2009,02,03,13,42,9.50
2009,02,03,13,43,9.50
2009,02,03,13,44,9.50
2009,02,03,13,45,9.60
2009,02,03,13,46,9.60
2009,02,03,13,47,9.70
2009,02,03,13,48,9.70
2009,02,03,13,49,9.80
2009,02,03,13,50,9.80
2009,02,03,13,51,9.90
2009,02,03,13,52,9.90
2009,02,03,13,53,9.90
2009,02,03,13,54,9.90
2009,02,03,13,55,10.00
2009,02,03,13,56,10.10
2009,02,03,13,57,10.00
2009,02,03,13,58,9.90
2009,02,03,13,59,9.90
2009,02,03,14,00,9.90
2009,02,03,14,01,9.90
2009,02,03,14,02,9.90
2009,02,03,14,03,9.90
2009,02,03,14,04,9.90
2009,02,03,14,05,9.90
2009,02,03,14,06,9.90
2009,02,03,14,07,9.90
2009,02,03,14,08,9.90
2009,02,03,14,09,9.90
2009,02,03,14,10,9.90
2009,02,03,14,11,9.90
2009,02,03,14,12,9.90
2009,02,03,14,13,9.90
2009,02,03,14,14,9.90
2009,02,03,14,15,10.10
2009,02,03,14,16,10.10
2009,02,03,14,17,10.10
2009,02,03,14,18,10.10
2009,02,03,14,19,10.10
2009,02,03,14,20,10.10
2009,02,03,14,21,10.10
2009,02,03,14,22,10.20
2009,02,03,14,23,10.20
2009,02,03,14,24,10.20
2009,02,03,14,25,10.20
2009,02,03,14,26,10.20
2009,02,03,14,27,10.20
2009,02,03,14,28,10.20
2009,02,03,14,29,10.30
2009,02,03,14,30,10.30
2009,02,03,14,31,10.40
2009,02,03,14,32,10.40
2009,02,03,14,33,10.30
2009,02,03,14,34,10.40
2009,02,03,14,35,10.40
2009,02,03,14,36,10.40
2009,02,03,14,37,10.40
2009,02,03,14,38,10.40
2009,02,03,14,39,10.40
2009,02,03,14,40,10.40
2009,02,03,14,41,10.40
2009,02,03,14,42,10.60
2009,02,03,14,43,10.60
2009,02,03,14,44,10.60
2009,02,03,14,45,10.60
2009,02,03,14,46,10.60
2009,02,03,14,47,10.70
2009,02,03,14,48,10.80
2009,02,03,14,49,10.80
2009,02,03,14,50,10.90
2009,02,03,14,51,10.90
2009,02,03,14,52,10.90
2009,02,03,14,53,10.90
2009,02,03,14,54,10.90
2009,02,03,14,55,10.90
2009,02,03,14,56,10.90
2009,02,03,14,57,10.90
2009,02,03,14,58,10.90
2009,02,03,14,59,10.90
2009,02,03,15,00,10.90
2009,02,03,15,01,10.90
2009,02,03,15,02,10.90
2009,02,03,15,03,10.80
2009,02,03,15,04,10.80
2009,02,03,15,05,10.70
2009,02,03,15,06,10.70
2009,02,03,15,07,10.70
2009,02,03,15,08,10.70
2009,02,03,15,09,10.70
2009,02,03,15,10,10.70
2009,02,03,15,11,10.70
2009,02,03,15,12,10.70
2009,02,03,15,13,10.70
2009,02,03,15,14,10.70
2009,02,03,15,15,10.70
2009,02,03,15,16,10.80
2009,02,03,15,17,10.80
2009,02,03,15,18,10.80
2009,02,03,15,19,10.70
2009,02,03,15,20,10.70
2009,02,03,15,21,10.70
2009,02,03,15,22,10.60
2009,02,03,15,23,10.60
2009,02,03,15,24,10.60
2009,02,03,15,25,10.40
2009,02,03,15,26,10.40
2009,02,03,15,27,10.30
2009,02,03,15,28,10.30
2009,02,03,15,29,10.30
2009,02,03,15,30,10.30
2009,02,03,15,31,10.20
2009,02,03,15,32,10.20
2009,02,03,15,33,10.10
2009,02,03,15,34,10.10
2009,02,03,15,35,10.10
2009,02,03,15,36,10.10
2009,02,03,15,37,10.10
2009,02,03,15,38,10.10
2009,02,03,15,39,10.10
2009,02,03,15,40,10.10
2009,02,03,15,41,10.00
2009,02,03,15,42,9.90
2009,02,03,15,43,9.90
2009,02,03,15,44,9.90
2009,02,03,15,45,9.90
2009,02,03,15,46,9.90
2009,02,03,15,47,9.80
2009,02,03,15,48,9.80
2009,02,03,15,49,9.70
2009,02,03,15,50,9.70
2009,02,03,15,51,9.70
2009,02,03,15,52,9.60
2009,02,03,15,53,9.60
2009,02,03,15,54,9.60
2009,02,03,15,55,9.60
2009,02,03,15,56,9.60
2009,02,03,15,57,9.60
2009,02,03,15,58,9.50
2009,02,03,15,59,9.50
2009,02,03,16,00,9.50
2009,02,03,16,01,9.40
2009,02,03,16,02,9.40
2009,02,03,16,03,9.30
2009,02,03,16,04,9.20
2009,02,03,16,05,9.10
2009,02,03,16,06,9.10
2009,02,03,16,07,9.00
2009,02,03,16,08,9.00
2009,02,03,16,09,9.00
2009,02,03,16,10,8.90
2009,02,03,16,11,8.90
2009,02,03,16,12,8.90
2009,02,03,16,13,8.90
2009,02,03,16,14,8.80
2009,02,03,16,15,8.80
2009,02,03,16,16,8.80
2009,02,03,16,17,8.80
2009,02,03,16,18,8.80
2009,02,03,16,19,8.80
2009,02,03,16,20,8.70
2009,02,03,16,21,8.70
2009,02,03,16,22,8.70
2009,02,03,16,23,8.70
2009,02,03,16,24,8.70
2009,02,03,16,25,8.60
2009,02,03,16,26,8.60
2009,02,03,16,27,8.60
2009,02,03,16,28,8.50
2009,02,03,16,29,8.50
2009,02,03,16,30,8.50
2009,02,03,16,31,8.50
2009,02,03,16,32,8.50
2009,02,03,16,33,8.50
2009,02,03,16,34,8.40
2009,02,03,16,35,8.40
2009,02,03,16,36,8.40
2009,02,03,16,37,8.40
2009,02,03,16,38,8.40
2009,02,03,16,39,8.30
2009,02,03,16,40,8.30
2009,02,03,16,41,8.30
2009,02,03,16,42,8.20
2009,02,03,16,43,8.20
2009,02,03,16,44,8.20
2009,02,03,16,45,8.20
2009,02,03,16,46,8.20
2009,02,03,16,47,8.20
2009,02,03,16,48,8.20
2009,02,03,16,49,8.20
2009,02,03,16,50,8.20
2009,02,03,16,51,8.10
2009,02,03,16,52,8.10
2009,02,03,16,53,8.10
2009,02,03,16,54,8.00
2009,02,03,16,55,8.00
2009,02,03,16,56,7.90
2009,02,03,16,57,7.90
2009,02,03,16,58,7.90
2009,02,03,16,59,7.80
2009,02,03,17,00,7.80
2009,02,03,17,01,7.70
2009,02,03,17,02,7.70
2009,02,03,17,03,7.60
2009,02,03,17,04,7.60
2009,02,03,17,05,7.50
2009,02,03,17,06,7.50
2009,02,03,17,07,7.40
2009,02,03,17,08,7.30
2009,02,03,17,09,7.30
2009,02,03,17,10,7.30
2009,02,03,17,11,7.30
2009,02,03,17,12,7.30
2009,02,03,17,13,7.30
2009,02,03,17,14,7.20
2009,02,03,17,15,7.20
2009,02,03,17,16,7.20
2009,02,03,17,17,7.10
2009,02,03,17,18,7.10
2009,02,03,17,19,7.10
2009,02,03,17,20,7.00
2009,02,03,17,21,7.00
2009,02,03,17,22,6.90
2009,02,03,17,23,6.90
2009,02,03,17,24,6.80
2009,02,03,17,25,6.80
2009,02,03,17,26,6.80
2009,02,03,17,27,6.80
2009,02,03,17,28,6.70
2009,02,03,17,29,6.70
2009,02,03,17,30,6.70
2009,02,03,17,31,6.60
2009,02,03,17,32,6.60
2009,02,03,17,33,6.60
2009,02,03,17,34,6.50
2009,02,03,17,35,6.40
2009,02,03,17,36,6.40
2009,02,03,17,37,6.40
2009,02,03,17,38,6.40
2009,02,03,17,39,6.40
2009,02,03,17,40,6.30
2009,02,03,17,41,6.30
2009,02,03,17,42,6.20
2009,02,03,17,43,6.20
2009,02,03,17,44,6.20
2009,02,03,17,45,6.20
2009,02,03,17,46,6.10
2009,02,03,17,47,6.00
2009,02,03,17,48,6.00
2009,02,03,17,49,6.00
2009,02,03,17,50,5.90
2009,02,03,17,51,5.90
2009,02,03,17,52,5.90
2009,02,03,17,53,5.80
2009,02,03,17,54,5.80
2009,02,03,17,55,5.70
2009,02,03,17,56,5.70
2009,02,03,17,57,5.70
2009,02,03,17,58,5.70
2009,02,03,17,59,5.70
2009,02,03,18,00,5.70
2009,02,03,18,01,5.70
2009,02,03,18,02,5.70